Theta_e
282 278 277 280 280 279 278 278 279 278 278 277 276 275 277 277 276 276 277 280 279 281 278 279 278 279 281 283 284 284 280 278 280 281 282 282 283 283 283 283 283 283 285 286 286 286 286 287 287 287 286 286 285 286 286 286 287 288 288 288 289 289 289 291 289 288 288 288 286 285 287 289 288 287 286 288 287 286 286 286 285 285 285 284 283 285
281 280 278 279 279 279 280 277 277 279 278 278 278 280 280 277 279 282 282 280 279 281 277 276 276 280 282 284 285 281 278 281 282 281 282 283 283 283 283 283 284 285 284 285 286 287 285 285 286 286 286 288 286 287 285 286 288 287 287 288 289 289 289 290 290 290 289 288 287 287 287 287 287 287 287 287 286 286 287 286 285 285 285 284 284 285
278 279 279 279 279 278 277 277 279 280 279 278 282 278 282 278 277 278 280 279 280 282 279 276 279 283 285 285 285 281 282 281 281 283 283 284 283 283 283 283 284 283 285 284 285 285 285 286 286 285 286 286 286 286 285 285 285 285 286 287 288 288 289 289 291 289 290 289 289 288 286 287 285 285 286 286 287 287 286 285 285 286 285 284 284 283
280 280 279 279 279 280 279 278 278 278 278 279 280 283 280 278 280 279 278 280 281 280 279 277 280 284 285 282 282 283 282 280 279 280 282 283 284 284 284 284 284 283 283 284 285 285 286 285 286 286 287 287 286 287 286 286 286 287 289 286 287 288 288 289 290 294 290 289 288 289 286 285 287 287 288 285 284 284 284 285 284 285 285 284 284 283
279 279 278 277 277 280 279 278 278 278 281 279 279 279 279 280 281 280 279 279 279 279 279 279 280 280 277 281 285 284 279 281 280 280 281 281 282 283 283 282 283 284 284 285 285 285 285 286 287 287 288 286 287 287 287 287 287 289 288 288 287 287 288 289 291 292 290 289 287 286 286 287 286 286 284 285 286 285 286 286 285 286 284 284 284 283
279 279 279 281 279 278 281 282 279 280 281 276 277 280 281 279 281 278 278 280 276 277 280 280 277 274 276 277 279 283 280 283 280 281 284 284 282 281 283 284 284 284 284 285 285 286 286 286 286 286 286 287 287 288 288 287 288 287 288 287 287 286 287 289 288 289 291 291 289 286 287 286 286 286 285 287 288 287 284 285 283 283 284 284 283 283
279 279 280 281 277 277 277 280 280 280 278 280 282 279 279 279 279 279 278 280 277 279 280 278 279 275 278 278 281 279 278 283 283 281 283 283 283 281 284 285 285 285 284 283 284 285 284 286 286 288 288 287 288 289 287 287 287 287 288 287 287 287 287 287 288 288 292 288 288 288 289 288 288 287 287 284 285 286 285 284 284 284 283 283 283 283
282 280 280 278 280 279 281 280 280 277 278 280 280 277 279 281 280 279 278 279 277 276 280 278 275 276 278 281 278 278 279 282 283 285 284 284 283 283 283 283 284 284 283 284 285 285 284 284 286 289 289 288 288 287 286 287 287 287 287 287 287 287 290 288 288 287 291 289 288 287 286 288 287 287 288 286 285 284 285 284 284 283 284 283 283 283
279 281 279 280 278 280 282 280 280 279 281 281 279 279 281 280 279 277 279 279 278 278 278 276 279 278 275 279 278 279 284 283 285 286 286 285 284 283 282 283 283 283 283 284 286 286 288 288 287 287 288 289 287 287 287 287 287 286 286 287 286 287 287 287 286 288 287 290 289 288 287 286 288 287 287 287 286 285 284 284 283 283 283 283 282 282
280 281 282 281 281 280 279 279 277 280 281 281 280 279 279 278 277 279 278 281 275 277 274 278 278 276 277 277 278 278 282 282 284 286 287 286 285 284 284 284 283 281 282 283 284 286 286 287 287 287 286 287 288 286 287 287 286 286 285 287 287 286 286 286 285 287 286 287 289 286 286 286 286 286 286 284 284 284 283 284 282 282 283 283 283 282
281 284 284 282 280 281 278 279 278 279 281 279 281 283 279 277 277 276 275 276 274 272 273 276 275 278 276 279 280 284 285 285 286 283 283 282 283 283 282 283 285 285 284 285 284 284 286 285 285 286 287 288 287 286 286 286 286 285 285 285 286 285 285 285 285 284 286 285 286 287 286 286 286 284 284 284 284 282 282 282 282 282 282 282 282 281
281 280 280 280 283 280 280 281 280 279 279 281 280 282 278 279 276 277 269 272 272 267 271 275 277 276 275 276 277 283 282 280 285 286 288 287 287 287 285 284 284 284 285 285 285 287 286 287 287 286 287 287 287 287 286 285 285 285 284 284 285 285 285 285 285 284 284 284 284 285 285 285 285 284 284 284 284 283 283 282 283 282 282 282 282 282
281 280 279 280 283 281 279 280 280 280 278 280 278 276 276 273 270 273 265 275 270 271 279 276 276 276 277 284 283 281 283 285 283 286 288 288 288 287 285 285 285 285 284 286 287 287 287 288 288 287 286 286 287 287 287 286 285 285 284 284 285 285 283 284 283 284 283 283 283 284 283 284 284 283 284 282 283 282 283 282 281 282 282 282 282 281
275 277 279 282 281 283 280 278 276 280 278 279 280 274 273 269 262 266 258 262 268 274 277 276 275 278 279 283 285 288 290 287 286 285 285 284 286 287 287 285 284 285 285 287 288 288 288 288 287 287 286 285 285 285 285 286 285 285 284 284 284 285 283 283 283 283 283 283 283 283 283 282 285 283 282 282 283 282 281 282 282 282 282 282 281 280
271 273 278 280 280 280 279 279 278 282 277 281 277 280 275 267 273 268 264 272 273 274 276 274 274 274 277 283 285 283 283 281 280 281 281 282 282 281 281 283 283 283 285 286 287 288 288 288 287 287 286 285 284 285 285 284 283 283 283 283 284 284 284 283 283 283 283 283 283 283 283 283 283 284 283 282 283 282 282 281 282 281 280 281 280 280
277 275 276 279 280 279 280 281 279 276 278 278 278 279 275 274 274 276 263 268 266 269 271 272 276 277 282 282 286 282 282 284 281 282 281 283 282 281 283 285 286 287 287 287 287 287 287 287 286 286 285 285 285 285 283 284 283 283 283 282 283 283 283 282 284 283 282 282 282 282 282 283 285 285 284 284 283 281 281 281 282 281 280 280 280 280
273 276 280 277 278 280 280 280 281 279 276 279 279 276 279 277 274 268 269 268 269 267 273 268 278 280 282 284 281 279 282 285 283 283 282 284 282 281 284 285 286 287 287 287 287 288 288 286 286 286 286 285 284 284 285 285 284 284 284 283 283 283 282 283 283 282 282 282 281 281 281 281 282 282 282 282 281 281 280 281 281 280 280 279 279 280
276 275 278 278 279 281 279 279 280 279 280 279 276 276 279 277 275 276 273 266 262 267 273 272 275 278 277 283 282 282 282 285 283 283 282 282 281 282 285 286 287 288 288 287 287 287 287 288 288 287 286 286 287 286 285 285 283 282 283 283 283 282 283 283 282 282 282 282 281 281 280 280 281 281 281 281 281 281 281 280 280 279 280 279 280 279
280 274 275 278 278 279 279 280 279 281 280 281 279 281 281 272 276 272 270 268 268 268 268 273 272 274 277 282 282 283 281 286 286 284 283 285 285 285 286 286 286 286 286 287 287 287 287 287 288 287 287 286 285 285 285 284 283 282 282 281 282 283 282 282 282 282 281 281 281 281 280 280 280 280 281 280 281 280 280 280 279 279 279 279 279 279
277 273 272 277 278 279 278 277 273 277 280 277 279 279 278 277 270 271 273 269 272 267 268 274 269 281 279 278 279 286 285 285 285 283 285 287 288 288 287 287 287 287 287 288 288 288 289 288 287 287 287 286 285 285 284 283 282 283 282 282 281 281 281 281 281 281 280 281 280 280 280 280 280 280 280 280 280 280 280 279 279 279 279 279 279 278
276 276 269 275 275 277 276 276 276 277 276 277 278 273 274 275 277 278 272 274 275 263 264 263 273 277 281 280 281 286 287 285 284 286 287 288 288 287 287 287 287 287 288 288 289 289 289 288 287 286 285 285 284 283 282 283 283 283 282 282 282 283 281 281 281 280 280 280 280 280 280 280 280 280 280 280 280 280 279 279 279 278 279 278 278 278
273 274 272 267 274 276 275 275 277 276 275 276 278 276 278 275 275 272 275 271 267 272 271 263 275 279 287 283 286 287 286 283 282 284 286 287 287 287 288 287 287 288 288 289 289 289 289 287 286 285 283 282 282 283 283 283 282 282 282 282 281 281 282 282 281 281 280 280 279 279 280 279 279 280 280 280 279 279 279 278 278 278 278 278 278 277
279 270 272 272 272 274 276 278 276 275 273 275 278 278 276 274 274 268 269 270 270 272 269 266 267 281 286 281 281 283 283 283 282 281 284 286 286 287 287 287 287 288 289 289 289 289 288 288 287 286 286 285 284 284 283 283 283 283 282 281 281 282 281 281 281 280 280 280 279 279 279 279 279 279 279 279 279 279 278 278 278 278 278 278 277 277
287 276 272 275 270 272 275 272 270 273 276 274 272 268 274 278 277 278 272 271 271 270 272 271 268 282 284 281 280 280 280 281 281 281 284 286 286 286 286 286 286 286 287 287 288 288 288 286 285 285 285 285 284 284 283 283 283 283 282 282 282 282 282 281 281 280 280 279 279 279 279 279 279 279 279 279 278 278 278 278 277 277 277 277 277 277
278 275 276 269 266 267 267 272 274 274 272 273 273 274 275 275 272 268 269 269 275 272 275 274 272 280 282 279 280 279 280 281 283 283 282 284 286 286 286 286 285 286 286 287 287 288 285 285 285 286 286 286 285 284 283 283 283 283 282 282 282 282 281 281 280 280 280 279 279 278 279 278 279 279 278 278 278 277 277 277 277 277 277 277 277 276
278 276 273 271 269 268 266 266 271 272 275 276 275 275 275 278 272 276 276 271 272 270 273 270 274 285 285 282 287 285 282 286 288 285 281 282 285 287 286 285 285 285 286 287 287 286 287 287 287 286 286 286 285 285 284 283 283 283 283 282 282 282 281 281 280 280 280 279 279 278 278 278 278 278 278 277 277 277 277 277 277 277 277 276 276 276
274 273 274 273 275 276 279 273 273 277 276 276 276 273 276 276 278 275 272 270 276 269 274 279 282 285 286 288 288 289 286 287 289 290 289 288 286 285 284 285 285 286 286 286 287 287 285 285 286 287 286 286 285 284 284 284 283 283 282 282 281 281 281 281 280 280 279 279 279 278 278 278 278 278 277 277 277 276 276 276 276 276 276 276 276 275
270 276 276 274 275 279 277 274 276 280 279 276 277 277 275 277 277 278 277 278 277 274 277 281 282 281 285 288 289 289 288 284 285 287 287 286 287 288 287 285 287 285 285 285 285 286 287 288 287 286 286 285 285 284 284 284 283 283 283 282 281 281 281 281 280 280 279 279 278 278 278 278 277 277 277 277 276 276 276 276 276 275 275 275 275 275
272 275 274 275 275 275 275 276 276 277 277 277 275 277 276 277 276 278 279 281 278 280 281 284 280 281 285 288 289 290 291 289 289 289 288 288 287 286 285 286 287 287 286 285 286 287 287 287 288 287 286 286 284 284 283 283 283 282 282 282 282 281 281 280 280 279 279 278 278 278 278 277 277 277 277 276 276 276 276 276 275 275 274 274 275 275
279 272 273 275 274 276 275 273 274 277 275 277 278 278 278 276 278 280 281 281 281 282 285 285 284 283 286 288 290 291 292 289 290 289 287 286 289 289 288 288 288 288 288 287 287 287 288 288 288 287 286 285 284 284 283 283 283 282 282 282 281 281 280 280 280 279 278 278 278 277 277 277 277 276 276 276 276 276 276 275 275 275 274 274 274 274
280 274 280 271 273 272 270 273 272 273 274 274 278 278 277 277 278 279 279 279 278 280 282 283 282 282 288 290 290 292 291 290 287 286 288 288 288 288 288 288 288 289 289 288 288 288 288 288 287 286 286 285 285 284 284 284 283 283 282 282 281 281 280 280 279 279 278 278 278 277 277 276 276 276 276 276 276 275 275 275 275 274 275 275 274 274
278 273 271 270 275 271 271 268 272 265 271 271 275 278 277 275 273 276 277 279 279 281 282 279 279 282 288 290 286 286 284 284 286 287 287 288 286 286 286 288 288 288 289 289 289 288 287 287 287 287 287 286 286 285 284 284 283 282 282 282 281 281 280 279 279 278 278 278 277 277 276 276 276 276 276 275 275 275 275 274 274 274 274 274 274 274
275 272 274 272 274 267 271 267 269 268 273 279 280 281 280 280 281 279 280 279 282 284 281 279 282 288 290 287 286 289 288 287 286 287 286 287 286 286 287 288 289 289 289 289 289 288 288 288 288 288 288 287 286 285 285 285 283 283 283 282 281 280 279 279 279 278 278 277 277 277 276 276 276 276 275 275 275 274 274 274 274 274 274 274 274 274
271 273 268 269 276 268 270 265 267 274 274 280 281 279 282 280 280 279 281 282 283 284 284 286 287 288 287 287 287 288 289 290 288 289 287 288 289 289 288 288 288 289 289 289 289 289 289 289 288 288 288 288 287 286 285 284 284 284 283 282 280 280 279 279 278 278 277 277 277 277 276 276 275 275 275 275 274 274 273 273 273 274 273 274 273 273
274 271 271 267 274 271 270 271 276 271 278 284 280 279 279 281 280 282 283 283 283 284 285 285 287 287 289 289 289 289 289 288 287 287 288 288 286 287 288 288 288 289 289 289 288 288 288 288 288 287 287 287 287 285 284 283 283 283 281 281 280 279 279 278 278 277 277 277 277 276 276 275 275 275 274 274 274 273 273 273 273 274 274 273 274 273
274 276 269 273 267 269 272 266 268 274 277 282 286 281 278 279 279 279 282 285 285 284 284 284 286 288 289 289 289 288 284 286 285 286 287 288 286 287 286 287 288 288 288 289 288 288 288 287 288 288 288 287 285 284 284 284 283 282 281 280 280 279 279 278 278 277 277 277 276 276 276 275 274 274 274 273 273 273 273 273 273 273 273 272 273 273
280 273 272 274 270 273 267 266 278 279 285 288 283 279 279 282 279 281 278 283 283 284 285 285 287 287 287 288 287 285 281 281 284 287 283 284 283 284 286 287 288 288 288 288 287 287 287 287 287 287 286 285 285 284 284 283 282 282 280 279 279 279 278 278 277 277 277 277 276 276 275 275 275 274 274 273 273 272 272 273 273 273 272 272 274 274
279 278 275 277 274 267 274 271 270 270 270 279 281 282 283 280 281 281 281 282 286 283 286 286 285 287 287 286 284 281 281 283 286 287 283 283 282 282 281 282 283 283 284 284 285 284 284 284 284 284 286 284 284 284 283 282 282 281 280 279 278 278 278 277 278 277 277 277 276 276 275 275 275 274 274 273 273 273 272 272 272 272 272 273 273 273
276 276 275 277 272 269 269 269 266 268 279 281 284 285 281 279 280 281 283 284 286 282 283 286 287 286 286 285 283 282 282 282 285 287 290 282 281 280 282 284 283 283 283 283 283 284 284 283 283 283 283 284 283 283 282 282 281 281 280 279 278 278 278 278 278 277 277 277 276 276 275 275 275 275 274 273 273 272 272 272 273 273 272 272 273 274
275 267 270 273 270 266 265 267 272 270 278 281 281 281 279 278 281 284 277 278 283 281 280 284 285 286 285 282 281 282 284 282 284 291 287 282 281 282 281 285 285 284 283 282 282 282 282 281 282 281 283 283 284 282 281 281 281 281 280 279 278 278 278 278 278 277 277 276 276 275 275 275 275 274 274 274 272 272 271 271 271 272 272 273 273 274
272 272 271 277 270 272 277 270 266 276 282 282 281 282 278 279 284 278 275 285 284 280 280 283 284 285 282 280 281 284 284 289 291 290 285 283 283 285 282 281 281 281 281 282 282 281 281 281 283 284 283 284 283 281 281 281 281 281 280 279 278 278 278 278 277 276 276 276 275 275 275 274 274 274 272 272 272 271 271 271 272 272 272 272 273 274
267 265 267 266 267 273 270 271 275 276 284 285 280 282 280 284 278 278 286 285 285 285 280 282 283 283 282 283 282 285 289 287 284 284 285 286 285 285 284 283 281 281 281 280 280 280 280 280 281 281 281 280 281 281 281 281 281 281 279 278 278 278 277 277 276 276 275 275 275 275 274 274 272 272 273 270 271 271 271 272 272 272 272 273 273 273
278 276 272 272 269 266 266 268 269 273 282 283 283 283 284 282 284 286 284 282 282 284 282 281 282 283 282 283 283 285 285 286 286 286 286 285 285 286 286 285 283 283 283 282 282 281 280 280 281 281 280 279 280 280 281 281 280 279 278 278 278 277 277 277 276 276 276 275 275 274 273 272 272 272 271 270 269 269 270 270 270 270 272 273 273 273
279 275 266 268 275 275 271 271 276 284 283 286 289 283 283 287 284 282 284 284 282 281 281 282 282 282 281 284 286 285 284 284 285 287 286 286 287 286 285 283 282 281 281 280 281 281 279 281 280 280 279 278 279 280 280 280 280 278 277 278 277 277 276 276 276 276 275 274 273 272 271 270 269 269 268 269 269 268 268 270 270 272 274 273 272 271
282 282 279 277 279 279 277 281 286 280 281 286 287 285 284 288 284 284 285 284 284 288 280 283 289 285 281 283 283 283 284 286 287 287 285 287 287 286 286 286 284 283 282 282 281 280 279 280 280 279 278 278 278 278 279 279 279 277 277 277 277 276 276 276 275 275 274 273 272 271 269 269 269 269 267 267 268 268 269 269 270 271 273 273 272 271
280 281 277 281 281 281 284 286 286 284 281 282 287 287 285 285 285 283 285 286 287 288 286 287 288 287 284 281 282 285 285 286 287 287 286 286 286 286 285 284 283 281 280 280 280 279 280 279 278 278 278 277 277 277 278 278 278 277 277 276 276 276 276 275 274 273 272 270 270 269 269 269 267 266 267 268 267 268 269 269 270 270 271 271 271 271
280 278 283 281 280 282 283 286 286 288 289 287 288 288 287 287 288 288 286 287 289 290 289 287 286 286 286 283 284 285 286 287 286 286 286 286 286 286 285 284 284 282 281 281 281 279 279 277 278 277 277 277 276 277 276 275 276 277 276 276 276 275 275 274 273 271 270 269 269 267 268 269 267 268 267 266 268 268 269 269 270 270 270 270 270 270
283 280 282 282 279 281 288 287 283 281 281 284 286 286 288 289 288 287 288 289 289 289 287 287 285 285 284 285 285 285 285 286 284 285 286 286 286 286 285 285 284 282 281 281 280 279 277 278 279 278 277 277 276 276 276 275 275 275 275 275 274 274 273 272 271 271 269 269 269 268 268 269 272 269 265 267 267 267 269 269 270 270 270 270 270 269
281 284 280 279 283 284 286 288 290 288 289 291 293 291 290 291 291 289 286 285 285 285 286 285 283 286 285 286 286 284 283 285 285 285 284 285 285 285 285 285 283 282 281 280 279 278 280 278 278 277 277 277 276 275 274 273 274 274 274 274 273 273 273 271 270 269 267 268 268 268 267 269 269 267 265 266 268 268 269 270 270 271 270 272 271 270
282 281 279 279 277 280 281 288 287 282 286 287 287 289 288 288 286 286 284 284 283 282 283 284 285 284 283 284 284 283 283 284 285 285 284 284 284 285 285 284 282 281 280 279 278 277 276 275 276 276 275 275 275 274 273 272 273 273 273 272 272 273 272 270 269 268 268 267 268 268 268 267 266 266 267 267 268 268 270 272 273 273 271 270 272 273
286 286 283 283 281 284 288 289 287 289 288 289 291 293 288 285 284 284 286 288 286 283 283 283 284 285 285 285 282 282 283 284 285 284 283 283 285 285 283 282 282 281 280 278 276 275 276 275 274 274 274 274 274 273 273 272 272 272 271 271 271 272 271 270 269 268 267 268 267 268 268 267 266 266 265 266 267 268 269 268 269 272 273 273 272 272
Wind_Speed
0 7 5 1 1 0 1 0 2 1 4 4 3 4 1 0 5 2 3 1 0 1 7 7 7 9 14 15 14 7 1 4 8 11 10 9 8 8 8 8 9 8 14 6 5 6 6 7 7 6 5 6 5 6 5 5 7 7 7 3 9 5 4 5 5 4 5 4 3 2 5 7 4 3 4 5 5 5 6 5 5 4 5 4 4 4
3 7 3 0 1 0 1 1 3 4 4 2 5 1 0 2 2 1 1 1 1 0 3 1 4 11 14 14 13 3 0 8 10 10 11 11 9 8 7 10 10 11 5 7 9 7 5 5 5 4 4 4 5 5 5 7 8 6 5 7 8 2 4 6 6 6 4 5 5 4 5 4 4 3 3 5 4 6 5 4 4 4 4 4 5 4
9 4 1 2 0 2 3 1 1 1 3 3 1 1 2 2 6 5 1 2 1 1 8 2 7 13 14 12 10 7 9 6 5 8 7 7 8 8 8 9 10 7 10 7 8 6 5 6 5 3 3 3 5 5 4 4 4 4 5 6 5 5 5 5 5 5 5 4 3 2 2 3 2 1 2 2 2 2 3 3 3 4 4 4 5 4
3 0 0 0 1 1 3 2 3 4 5 3 2 1 3 2 3 3 1 2 1 1 3 3 8 14 12 7 12 10 8 5 5 6 8 6 8 9 9 7 6 7 8 8 7 6 6 5 4 4 4 4 3 3 3 4 4 4 4 5 5 5 4 5 5 6 5 2 3 1 1 1 1 0 0 0 1 1 1 4 3 4 4 4 5 4
1 0 1 2 2 1 1 2 2 2 1 1 1 1 1 1 1 2 3 4 2 0 0 5 7 9 4 5 3 0 1 3 5 3 6 8 8 6 5 5 7 10 8 8 8 6 4 4 4 3 3 3 3 2 2 3 3 3 4 4 4 4 4 4 4 5 3 3 2 2 2 2 1 1 1 2 4 3 3 3 3 6 3 4 4 3
3 0 2 0 1 3 2 1 2 1 3 4 1 0 0 1 2 3 4 6 7 2 3 4 6 3 3 5 9 9 6 4 2 2 8 8 5 5 7 11 7 8 7 8 9 7 5 5 5 3 3 3 2 3 3 3 3 3 4 3 2 3 3 4 4 4 4 5 5 3 3 3 2 4 2 4 5 3 2 3 2 2 1 2 3 3
2 1 1 1 3 4 4 1 1 0 2 1 0 1 0 2 1 2 6 3 2 1 2 1 1 8 6 5 5 3 3 8 6 4 8 6 6 5 8 8 7 8 7 6 7 6 5 4 3 2 1 1 1 2 2 3 3 3 2 2 1 2 2 2 3 4 4 4 4 5 6 5 4 4 3 2 1 2 2 1 3 3 2 1 3 3
0 2 2 3 3 4 2 1 1 2 2 2 0 3 2 2 3 2 2 2 3 2 2 3 2 2 9 11 4 4 3 7 7 8 8 7 6 7 7 7 7 8 6 6 7 6 5 4 4 2 1 1 1 2 2 2 2 3 3 3 3 2 1 1 1 3 4 5 4 4 4 4 4 5 5 2 2 1 0 2 3 3 3 1 1 3
1 1 1 2 4 1 0 1 0 1 0 1 1 2 1 1 2 2 1 0 1 2 7 3 3 1 5 9 4 2 2 6 10 9 8 8 7 7 7 8 8 8 7 7 7 6 6 6 5 4 1 0 1 1 1 1 1 1 1 2 2 4 3 3 1 2 4 4 5 5 4 4 4 3 3 1 0 1 1 2 3 3 4 3 3 1
2 1 1 2 1 0 1 1 0 1 2 1 1 3 3 3 3 1 1 0 2 1 6 0 3 1 9 7 6 3 1 7 10 11 10 9 8 7 7 7 7 5 5 6 6 5 5 4 4 3 2 2 0 1 1 0 0 1 2 3 4 4 3 3 3 0 3 3 3 4 4 4 4 2 0 0 1 1 1 1 2 3 3 5 4 4
1 3 4 3 1 0 2 0 0 1 1 1 1 0 1 4 2 2 5 1 2 1 5 2 2 0 5 7 7 4 7 8 7 5 5 5 6 7 7 7 5 5 6 6 6 5 5 3 3 1 3 2 1 0 0 1 1 1 3 3 4 3 3 3 3 2 1 3 4 4 4 5 4 3 2 1 0 1 1 2 2 3 3 3 5 4
0 0 1 1 2 2 2 1 0 0 1 0 0 0 4 1 5 1 3 4 1 4 2 2 1 0 2 7 6 9 4 4 6 8 9 8 9 9 7 7 7 6 6 6 5 5 4 3 3 1 3 3 2 0 1 1 1 2 2 3 3 3 4 3 3 3 3 2 2 3 4 4 4 3 3 2 1 1 1 1 1 1 3 4 4 3
1 1 1 3 1 4 1 2 1 1 2 1 1 5 4 5 6 3 4 2 2 3 1 2 0 2 9 13 9 7 8 8 8 8 9 9 9 8 6 8 7 6 5 6 7 5 5 6 6 5 5 3 2 3 0 0 1 1 2 3 3 2 3 3 3 3 2 3 1 1 3 3 3 4 4 3 2 2 2 3 3 4 4 3 5 5
1 1 3 2 2 2 1 1 1 0 1 1 1 2 2 2 4 1 4 2 5 4 3 0 1 3 6 10 11 16 15 9 7 9 7 5 7 7 7 6 6 6 7 7 7 7 7 7 6 5 5 4 4 3 2 1 1 1 2 2 4 1 1 2 2 2 3 3 1 1 2 3 4 4 4 3 4 3 3 4 4 4 4 4 2 1
2 4 0 0 1 1 0 1 2 0 2 0 1 1 3 5 0 2 2 3 4 5 4 4 1 6 2 3 0 9 6 5 5 5 5 6 6 5 4 3 4 5 6 7 7 8 8 8 6 6 5 5 4 4 3 3 2 2 2 2 3 3 2 2 2 2 3 2 2 2 2 3 3 4 5 4 3 5 5 3 5 3 3 5 1 2
1 5 1 1 1 1 1 1 0 1 3 1 1 3 4 1 4 2 3 2 3 4 6 1 6 4 6 5 9 4 7 9 5 7 4 8 5 4 4 6 8 9 9 7 7 7 7 6 6 5 5 5 4 4 4 4 3 3 3 3 3 3 1 1 1 1 1 1 1 2 4 4 4 4 5 5 4 3 4 4 5 4 3 3 3 1
2 2 1 6 2 0 0 0 1 0 1 1 2 1 1 1 4 4 1 0 1 3 8 1 8 7 9 8 5 7 4 7 2 4 3 7 5 2 6 7 8 9 7 7 9 8 8 6 6 6 6 5 4 4 5 5 5 4 4 3 3 2 1 1 0 0 1 1 3 3 3 4 4 5 5 6 5 5 4 4 4 4 3 3 3 3
2 3 1 1 0 0 1 1 1 1 1 1 1 3 1 2 1 2 2 2 4 1 8 2 6 8 6 10 4 9 5 8 5 6 4 5 3 6 9 8 9 10 9 6 6 6 6 6 7 6 5 5 6 6 5 5 4 3 4 4 4 3 3 1 1 1 1 2 3 3 3 3 3 5 5 5 6 4 6 4 4 3 5 3 2 3
2 3 1 1 0 4 1 0 1 1 0 1 2 0 0 0 0 2 2 3 2 4 6 7 4 7 5 9 6 7 4 7 7 3 3 6 7 10 9 10 8 6 5 6 8 7 8 8 8 8 7 6 5 5 5 4 3 2 2 2 4 5 3 3 2 2 1 1 2 2 3 4 4 4 5 4 5 4 6 5 4 4 3 3 2 3
2 1 3 1 2 1 1 1 3 1 2 1 0 1 1 1 1 2 2 2 3 5 4 9 5 9 6 7 6 8 8 6 7 5 7 10 10 9 9 9 8 8 9 8 8 9 9 9 8 8 8 8 7 6 5 4 3 4 3 4 3 2 2 3 3 3 3 2 2 3 3 3 3 4 5 4 5 6 5 4 4 4 4 3 2 3
2 1 2 0 3 1 2 3 7 8 5 1 1 1 1 0 2 2 1 2 2 3 2 1 9 9 8 7 5 10 9 6 5 7 7 8 8 7 7 8 7 7 8 9 10 10 10 9 7 7 5 5 4 4 4 5 6 5 4 4 4 5 4 4 3 3 3 3 2 3 4 4 4 4 4 5 5 6 4 4 3 3 3 3 3 3
3 1 3 1 1 3 5 1 1 2 2 5 8 7 8 6 2 1 8 2 1 1 4 3 10 10 12 6 10 9 7 4 5 5 8 8 9 9 9 9 9 9 10 10 10 9 9 8 7 5 4 3 4 5 6 5 4 4 5 4 4 3 4 5 4 4 4 3 2 3 4 4 3 4 4 6 5 5 4 4 4 3 3 5 2 3
2 3 3 2 6 2 3 0 1 0 1 1 2 1 5 3 5 4 0 3 1 1 3 2 1 15 3 4 4 7 6 6 6 3 9 8 9 8 9 8 8 10 10 10 10 9 9 8 8 8 9 9 9 8 6 5 6 6 5 5 4 5 5 4 5 4 4 4 3 4 3 3 4 4 5 6 4 5 4 3 3 3 4 4 4 3
4 1 0 5 4 3 2 1 0 1 0 1 0 1 2 3 5 6 3 4 4 1 1 1 1 14 2 1 5 4 5 6 5 5 9 10 10 9 9 9 9 9 10 8 7 7 8 5 5 6 9 9 8 7 8 7 6 5 5 5 5 6 6 5 5 5 4 4 4 3 3 4 4 5 5 6 4 5 4 3 3 3 4 4 3 5
2 3 3 2 4 4 1 2 1 0 1 2 2 3 2 2 4 2 4 0 1 8 9 7 8 13 3 2 3 3 5 6 8 7 8 10 10 8 8 8 7 8 8 9 10 9 5 6 10 12 10 10 9 8 7 8 7 7 7 6 6 5 5 5 5 6 5 5 5 4 4 4 4 5 5 5 4 4 4 4 4 3 4 4 5 3
1 2 5 2 3 2 3 3 1 1 5 3 0 0 3 5 5 3 2 1 4 3 6 3 8 18 8 5 10 8 6 10 11 8 5 8 9 10 8 8 8 7 11 10 8 7 13 13 9 7 10 9 9 10 9 8 8 7 7 7 5 6 6 6 5 5 6 5 6 5 5 4 4 5 6 5 4 4 4 4 4 4 4 4 4 3
1 1 2 6 6 9 9 3 2 3 3 2 2 4 5 3 1 2 5 4 9 3 7 12 13 18 21 20 15 16 7 10 15 13 9 8 7 9 9 9 8 8 9 10 9 8 5 5 13 14 9 10 9 9 9 9 9 8 7 7 6 6 6 6 7 6 6 6 6 5 5 5 5 6 5 5 5 4 4 4 4 4 4 3 3 3
2 1 5 4 7 7 2 5 3 3 2 3 2 4 5 7 7 8 9 9 6 7 10 12 12 9 23 22 19 19 11 7 9 10 10 7 8 9 8 6 8 8 9 7 7 9 13 14 10 10 12 11 10 8 8 8 9 9 9 9 7 6 6 6 7 7 6 6 6 6 6 5 4 5 5 4 4 4 4 4 4 4 3 3 3 2
3 3 2 3 5 4 4 4 1 1 4 3 5 4 7 10 7 11 12 10 8 8 16 14 6 10 17 17 19 18 18 11 11 11 8 9 9 8 8 10 11 11 9 8 12 12 13 14 13 13 11 11 8 10 10 9 8 7 7 6 7 7 7 7 8 8 7 7 7 6 5 5 4 4 4 5 5 5 4 4 3 3 3 2 2 1
2 4 1 1 3 5 3 2 1 5 2 2 6 9 7 10 15 17 18 12 13 16 17 17 14 17 18 22 23 23 18 9 12 11 10 10 14 13 11 12 13 13 11 12 13 13 13 14 12 10 9 9 12 12 11 10 10 10 10 9 8 9 7 8 8 9 8 8 7 6 5 5 4 5 4 5 5 5 4 4 3 3 2 2 1 1
2 4 4 0 1 4 3 2 2 0 1 5 10 8 6 9 12 15 7 6 6 15 19 21 17 21 23 22 21 21 15 11 9 11 13 12 10 11 12 13 13 13 13 13 12 12 12 11 10 8 10 13 14 14 13 12 11 9 9 9 9 9 8 8 9 8 8 8 7 7 6 6 5 5 5 5 5 4 4 4 3 3 2 1 1 1
0 2 2 1 2 5 3 4 3 3 1 6 12 13 9 9 9 8 11 10 9 16 16 4 8 16 22 19 6 7 6 6 10 12 11 9 8 8 11 13 12 13 13 13 12 10 9 11 11 13 15 15 15 13 12 12 11 11 12 10 10 9 8 8 8 9 8 7 8 7 7 6 6 6 5 5 5 4 4 3 3 2 1 1 2 1
4 4 2 1 1 5 4 0 5 7 4 9 13 16 20 15 12 1 4 2 16 15 8 9 16 18 16 6 9 15 9 9 10 11 10 10 9 9 12 13 13 13 13 12 12 11 11 12 14 15 14 11 12 14 15 13 12 14 13 12 10 9 10 9 9 8 8 8 8 8 7 6 7 6 6 5 5 4 3 3 3 2 1 2 1 1
2 4 2 1 1 2 5 6 1 4 5 11 6 2 7 10 13 14 11 14 14 11 12 12 14 12 11 13 12 15 14 15 9 12 5 9 14 13 11 10 12 13 12 12 11 11 10 9 9 11 13 13 12 12 9 10 13 11 9 10 9 11 10 9 8 8 9 8 8 8 7 7 7 6 6 5 5 4 4 3 2 1 0 0 1 2
5 2 2 1 1 2 4 3 4 5 12 8 1 2 2 1 5 13 13 9 9 13 17 17 20 19 20 15 12 13 12 13 11 12 17 12 7 11 13 13 12 11 12 12 12 11 10 10 9 8 8 11 11 8 9 9 8 8 9 10 11 9 10 8 9 8 9 9 8 8 7 7 6 7 5 5 5 4 4 3 1 1 0 0 1 1
7 6 3 0 2 1 1 2 0 10 7 12 15 2 3 3 2 1 10 16 17 16 18 18 22 22 19 16 15 8 5 12 11 11 12 12 6 9 8 10 11 9 10 10 9 11 8 9 10 11 12 6 8 10 11 11 9 10 10 8 10 9 9 9 9 9 9 9 9 9 7 8 7 6 5 5 4 4 4 2 1 1 0 0 0 1
9 4 3 1 1 3 3 2 10 9 16 15 4 1 5 4 5 5 4 10 5 9 15 17 21 18 15 15 13 7 6 5 8 11 4 5 4 6 9 10 9 10 9 12 7 10 7 7 7 8 5 6 9 10 11 9 10 9 9 10 9 10 9 10 10 10 10 10 9 8 7 7 8 7 6 5 5 4 3 2 1 0 1 1 0 1
1 4 3 3 3 3 2 5 5 3 3 11 6 3 1 1 5 4 2 10 6 8 11 13 12 14 13 12 7 5 3 4 10 9 4 4 4 5 5 8 9 9 10 11 9 8 8 6 5 4 7 7 8 9 8 9 11 10 11 11 10 11 11 11 12 10 10 9 9 8 7 7 8 8 6 5 5 4 3 2 1 1 1 0 1 2
4 6 4 7 2 3 2 3 3 3 10 6 2 1 0 3 4 3 4 11 7 3 8 12 13 12 10 8 5 2 3 7 9 9 10 5 4 3 6 8 6 7 8 8 9 10 7 5 4 5 5 8 10 10 10 12 13 12 13 12 12 12 13 13 11 11 10 9 8 7 8 7 7 7 7 5 5 4 3 3 2 1 1 1 1 3
5 2 2 1 2 2 4 2 6 5 9 2 2 2 3 3 3 3 6 7 5 2 5 8 10 9 8 5 2 2 2 8 9 12 4 2 3 5 4 9 9 8 9 6 6 6 5 2 3 4 7 11 11 10 12 13 13 14 14 13 12 12 13 13 10 8 7 8 8 8 8 7 7 6 6 6 4 4 3 3 2 1 1 1 2 3
1 0 1 9 4 4 5 5 4 9 10 7 5 4 3 5 1 3 6 11 5 3 5 8 7 8 4 3 6 3 7 9 9 9 9 7 7 10 5 6 9 7 9 8 7 3 2 4 6 8 10 8 8 10 11 12 13 13 12 11 11 13 10 7 8 8 8 8 8 7 7 6 7 7 5 5 5 3 2 2 2 1 1 1 2 2
1 2 2 4 3 7 6 5 9 7 12 10 3 8 6 2 3 7 10 3 1 4 4 7 7 6 5 7 7 9 9 8 7 8 11 11 9 12 11 8 7 7 7 5 5 3 3 3 4 4 3 4 8 9 10 11 12 11 10 10 11 8 7 9 9 9 9 9 8 7 6 6 5 5 6 4 5 4 2 1 1 1 1 1 2 3
11 8 7 7 3 4 1 0 3 5 6 5 10 4 0 4 9 7 3 4 4 2 2 4 8 8 6 6 8 10 10 12 11 12 12 12 11 13 12 10 9 9 9 6 5 4 3 4 5 5 4 3 6 7 8 10 10 8 8 10 8 7 9 9 10 9 9 8 8 7 7 5 6 5 4 4 4 4 2 1 1 1 1 2 2 3
6 3 2 4 7 8 7 8 9 13 3 9 11 5 7 13 3 3 2 6 2 3 3 4 6 7 6 7 9 8 8 9 13 12 10 11 11 10 8 7 7 8 8 5 4 4 4 5 3 3 2 3 4 5 6 10 9 8 9 9 7 9 9 9 8 9 9 8 7 7 5 5 5 5 4 5 4 3 3 1 1 1 2 1 2 2
11 8 8 6 8 8 11 13 12 4 5 8 6 4 5 8 1 2 1 4 6 9 3 3 8 5 6 6 7 8 10 11 12 11 9 14 14 13 13 11 8 9 8 7 6 4 4 5 4 3 3 3 5 5 7 7 10 10 11 7 8 9 10 9 9 9 8 7 6 6 5 5 5 5 4 4 4 3 2 1 0 1 1 1 2 2
3 2 2 1 7 6 9 14 3 3 4 7 9 8 6 6 7 4 6 7 8 10 5 7 8 8 6 4 4 8 8 11 12 13 12 12 12 13 10 9 9 6 6 5 4 4 4 3 3 5 6 5 5 6 6 6 8 12 8 7 8 8 9 10 10 9 8 7 6 7 6 7 5 4 4 3 3 3 2 2 1 1 2 1 2 3
4 3 2 4 3 1 8 3 8 18 16 10 12 9 7 9 12 9 7 10 13 12 10 7 8 9 9 5 7 11 14 13 11 12 12 12 13 12 11 11 11 7 7 8 7 4 5 5 6 7 8 8 6 6 5 5 4 5 7 8 8 8 9 10 10 9 7 8 7 5 6 7 5 5 3 2 2 1 1 1 1 1 2 2 3 4
4 3 4 7 2 5 15 8 4 3 4 6 8 7 11 12 11 10 11 10 10 9 7 9 5 8 6 8 10 9 12 11 9 13 12 12 12 11 11 10 10 7 7 6 4 6 5 7 7 8 8 8 6 4 4 4 5 6 8 7 8 9 9 10 9 10 8 8 6 6 6 6 6 6 4 3 3 1 0 1 2 2 3 3 3 4
3 6 5 4 6 11 11 20 23 8 11 18 19 13 13 14 12 8 6 7 8 9 10 8 6 10 6 12 9 7 8 13 12 12 11 12 12 11 11 10 7 8 6 5 5 6 9 6 7 6 6 4 4 4 4 5 5 7 9 9 9 10 11 9 7 8 7 6 6 6 4 5 5 5 4 2 1 1 2 2 3 3 4 4 4 4
6 6 3 2 3 8 10 15 0 3 9 9 9 12 9 8 6 7 6 7 6 6 7 9 12 8 8 9 8 7 10 12 13 11 10 11 11 12 11 9 7 5 5 4 3 4 4 4 4 4 5 4 4 5 6 6 6 6 7 8 8 9 11 9 8 8 6 6 6 5 5 4 4 3 2 1 0 1 2 3 4 5 4 5 5 8
9 12 8 8 8 12 11 14 7 8 9 11 16 17 4 3 3 4 8 11 6 4 7 7 9 12 10 9 6 8 10 12 14 10 10 10 12 10 7 6 8 6 4 3 4 4 5 5 5 5 5 6 6 6 6 6 6 6 5 6 6 8 10 9 8 7 6 6 5 6 5 5 4 2 2 1 1 1 3 5 5 7 11 11 8 9
Wind_Direction
65 73 56 96 276 242 262 111 106 138 124 102 87 93 133 198 286 285 294 282 23 301 242 233 254 268 277 273 275 277 332 245 258 258 252 254 252 251 253 249 252 249 246 276 284 272 266 266 265 268 267 262 265 252 242 244 244 236 238 232 249 232 194 189 189 188 180 187 224 240 220 234 237 211 212 232 231 226 236 235 232 237 239 240 242 238
67 65 16 216 259 240 290 159 97 62 40 108 102 76 359 168 275 202 115 356 292 176 297 34 302 269 260 272 269 304 77 249 229 240 251 251 242 248 247 257 252 252 289 291 295 288 291 288 288 285 268 250 260 253 211 227 239 230 223 224 246 207 190 199 199 194 181 194 183 167 199 199 220 215 213 242 227 231 234 233 235 238 241 238 242 243
34 100 200 278 67 87 43 53 32 97 95 34 124 164 357 295 250 286 10 338 288 105 267 6 337 288 280 268 275 238 224 240 221 213 230 225 246 244 244 248 261 277 272 292 271 284 284 293 298 298 283 262 237 270 257 257 261 246 231 232 239 226 204 210 197 178 208 211 209 171 194 167 233 254 231 224 235 221 230 238 235 239 237 235 247 239
37 318 271 41 149 43 20 34 69 61 69 88 53 28 260 260 24 321 296 13 2 158 281 350 326 289 287 279 257 254 209 252 246 237 248 222 233 233 232 229 243 256 267 272 276 289 302 294 292 330 349 333 305 285 283 276 259 257 241 239 231 229 213 205 204 202 211 161 182 169 150 176 118 200 77 13 326 312 315 279 241 246 230 229 244 236
168 271 167 83 70 198 125 9 51 43 360 357 118 123 272 346 311 194 272 306 267 331 120 322 291 294 317 327 299 22 266 280 291 297 262 257 241 256 285 279 226 241 242 261 282 284 293 327 317 307 296 316 357 340 318 302 278 251 252 244 233 229 217 216 206 208 178 142 114 91 72 77 56 52 18 358 296 258 252 278 271 256 212 226 242 241
26 311 84 68 36 49 62 20 39 90 321 326 232 116 283 143 274 322 328 5 14 336 30 48 346 315 302 283 245 276 338 306 287 281 260 251 247 234 246 248 248 245 240 237 250 261 276 280 296 318 331 2 344 356 329 307 289 281 277 278 263 242 229 216 213 192 170 188 177 156 177 246 244 271 283 267 253 281 250 235 257 323 242 223 238 247
151 17 121 170 98 60 66 95 281 101 138 57 239 192 169 150 105 45 0 36 350 10 345 10 80 276 322 307 267 305 325 284 297 271 263 268 255 232 236 240 240 236 249 249 256 267 275 264 277 282 318 319 333 320 318 329 349 354 333 306 278 256 250 228 208 181 173 177 184 194 201 205 212 223 255 242 264 237 271 301 301 302 318 218 234 266
54 343 41 32 57 56 27 25 18 115 91 264 4 131 110 49 40 20 80 105 232 264 292 50 117 227 310 290 274 296 310 286 300 278 264 256 249 241 237 238 236 235 229 226 226 230 231 239 216 212 252 284 283 289 318 345 6 20 2 27 41 35 14 341 223 171 182 179 188 191 207 208 212 208 238 237 285 255 274 334 311 323 315 317 230 265
88 343 71 49 68 70 297 226 21 99 198 239 267 201 102 112 141 102 71 189 245 7 294 339 346 281 258 265 314 354 287 282 265 257 257 252 246 242 244 241 238 233 222 207 202 213 214 216 222 219 231 283 301 318 342 348 342 347 12 52 52 46 23 4 359 179 197 187 180 188 182 212 226 212 234 244 314 14 13 332 332 350 332 335 346 312
342 97 217 120 103 221 241 310 165 95 7 268 152 96 93 76 76 80 90 14 326 36 282 305 359 210 285 276 333 339 281 268 251 243 241 238 236 232 234 247 244 239 228 223 221 211 217 217 220 221 242 286 259 292 295 314 27 49 53 52 53 29 11 357 9 161 185 191 166 168 183 200 229 200 213 94 337 35 21 345 340 335 352 353 357 5
251 303 190 78 128 151 140 3 136 315 250 23 153 177 8 40 29 32 67 85 50 351 260 259 307 125 297 273 229 150 220 206 236 284 273 273 263 255 244 239 232 213 206 206 217 232 230 239 233 270 208 212 278 308 229 27 38 52 63 64 64 15 3 8 13 42 132 184 178 188 188 195 216 201 172 184 348 40 43 26 351 3 346 6 9 4
16 342 40 334 43 99 108 43 343 218 285 174 346 74 11 348 5 45 341 29 90 281 259 262 284 322 194 293 283 238 271 226 196 213 227 230 230 225 221 226 227 214 204 202 205 226 231 246 254 226 233 219 218 325 44 29 30 55 61 79 79 28 14 359 3 38 46 97 188 200 186 194 205 177 168 173 211 202 151 146 56 1 38 23 14 22
57 58 257 357 295 85 72 50 326 325 347 61 35 31 60 284 22 293 15 313 198 199 238 328 204 359 231 232 253 282 253 257 218 222 219 214 220 222 228 220 210 208 206 201 205 205 211 206 206 211 224 228 220 195 229 135 86 100 81 91 95 40 4 360 356 41 43 58 44 195 195 199 175 174 164 161 171 187 149 143 100 72 65 27 37 5
289 285 9 301 70 45 112 112 313 12 335 53 82 112 74 14 35 277 276 229 296 298 259 336 276 262 264 281 243 245 258 239 240 229 237 229 233 229 222 216 207 210 207 209 203 204 203 204 205 206 207 208 218 224 221 213 172 164 115 108 107 82 23 3 19 21 56 41 28 59 161 176 167 160 149 153 142 155 141 133 115 110 111 95 89 8
354 344 305 69 79 30 24 192 195 226 137 167 167 108 182 133 154 286 251 294 264 241 278 285 53 233 45 246 215 224 249 300 274 262 255 259 252 254 276 264 251 236 230 218 213 210 207 207 202 202 205 209 211 215 213 214 202 175 149 128 113 93 32 30 7 22 57 45 28 62 95 123 128 126 112 117 125 132 121 120 112 112 108 97 86 68
192 210 270 297 252 34 229 277 116 80 72 219 179 92 72 239 132 219 204 168 290 343 337 239 212 192 204 264 281 272 281 280 272 271 268 264 255 266 273 238 223 219 220 212 219 226 225 216 210 209 209 207 204 207 210 206 197 185 172 147 137 138 94 22 30 25 67 70 69 64 93 94 107 109 108 100 95 95 115 127 119 116 104 106 109 62
14 287 20 314 58 112 262 309 304 13 203 237 93 192 206 144 98 88 55 59 87 48 255 191 312 284 296 307 298 343 337 281 308 281 258 256 270 288 246 239 231 228 222 215 217 216 220 220 224 214 202 198 197 199 206 205 197 191 172 149 143 121 99 86 76 85 83 111 95 76 89 101 105 117 123 124 116 113 105 108 110 110 115 108 91 81
147 252 320 67 324 358 260 187 289 356 245 58 60 230 167 149 111 129 270 338 63 128 267 56 253 308 35 296 322 341 340 293 297 261 260 275 278 254 243 236 232 227 225 228 230 229 225 220 214 211 212 201 193 195 202 209 207 200 180 167 152 154 144 159 130 120 123 138 116 108 97 91 112 120 118 119 123 124 109 96 101 106 91 88 85 97
115 329 311 262 175 267 26 358 328 322 60 107 171 212 129 238 27 340 93 323 332 292 289 304 289 259 188 258 328 304 317 295 289 295 301 264 247 240 243 244 242 247 251 238 230 227 229 224 219 205 206 206 205 205 199 190 177 172 173 182 166 168 177 157 146 118 93 135 129 122 122 124 114 112 112 114 115 116 109 114 114 105 117 100 91 93
36 168 292 283 151 331 330 104 250 272 1 59 314 21 295 114 186 100 206 179 118 277 28 292 24 281 194 222 211 263 258 262 280 304 246 241 235 234 235 239 233 227 225 228 226 224 222 223 216 205 199 197 199 196 197 181 165 177 184 166 162 130 125 121 127 133 130 131 133 119 103 90 108 113 117 122 123 112 113 124 119 123 107 110 95 90
97 101 256 285 273 341 254 193 213 158 153 6 75 327 355 327 222 86 3 152 194 191 179 244 320 283 250 216 188 247 259 249 237 256 261 258 255 249 248 243 238 232 229 225 224 222 220 219 216 214 210 202 189 187 176 179 182 186 173 180 179 164 161 148 148 139 146 131 139 129 126 127 121 113 113 108 107 110 117 120 119 116 129 112 78 93
81 89 197 311 21 227 226 299 245 179 159 172 160 194 175 122 124 129 270 22 69 107 240 126 267 269 277 168 213 240 259 261 245 236 268 267 256 248 242 237 227 233 230 227 226 222 220 217 213 210 203 195 181 188 189 194 175 173 187 190 182 169 170 159 158 151 146 142 146 141 133 126 118 118 112 108 110 111 118 117 110 124 101 93 81 83
146 148 91 240 200 218 260 307 275 331 125 162 164 229 155 132 105 102 216 272 28 242 103 171 77 270 245 210 212 233 259 247 251 224 263 264 267 264 255 248 239 228 234 229 226 224 220 211 205 197 195 194 194 191 189 186 188 189 188 182 188 176 186 173 158 148 141 142 147 144 139 131 125 123 117 113 116 115 117 114 103 99 104 99 91 75
104 96 72 286 309 309 325 306 14 35 145 10 309 54 115 183 184 176 169 172 137 96 192 334 234 260 293 226 223 237 260 276 275 239 244 268 269 267 263 257 242 242 243 240 237 230 224 211 195 191 203 199 196 192 195 193 190 190 184 187 180 187 175 164 152 146 141 142 142 144 137 133 136 123 124 119 126 123 119 111 99 102 97 95 83 72
134 278 123 350 354 338 341 350 356 328 73 202 201 217 198 91 67 152 108 128 310 211 178 139 242 275 269 312 289 284 294 296 277 259 209 254 272 266 263 261 252 248 249 239 231 226 214 208 207 209 202 199 197 195 192 191 191 187 189 183 188 190 176 159 151 146 148 147 145 152 147 146 143 132 128 128 132 125 115 109 107 90 87 84 71 62
97 184 118 155 205 283 298 302 276 244 229 220 204 18 241 156 141 123 223 125 195 276 139 183 249 258 269 304 301 285 289 300 277 251 232 219 258 276 278 262 257 248 245 241 236 216 216 216 218 213 208 202 198 193 189 193 189 189 186 188 188 178 171 166 150 152 149 152 149 156 159 156 146 142 140 139 132 126 117 109 95 89 68 81 88 70
165 63 154 164 159 204 217 205 254 117 64 202 241 180 207 209 221 107 101 117 207 205 186 232 231 278 292 282 277 274 274 267 279 288 280 278 263 257 260 269 260 248 245 242 235 238 255 241 223 219 209 206 198 193 191 187 188 187 184 186 187 185 173 165 156 154 155 157 154 157 165 165 160 151 146 140 133 124 108 97 92 84 81 73 90 86
65 283 247 182 230 232 157 187 204 190 231 235 178 247 195 175 188 162 171 217 158 101 272 237 236 256 266 277 281 285 278 253 267 275 285 280 269 265 266 266 267 260 256 250 241 227 225 229 229 219 214 204 201 192 193 193 188 184 184 184 180 178 174 167 157 156 159 157 158 161 169 172 162 149 143 133 123 114 106 98 87 87 90 93 85 87
143 179 270 133 268 271 260 239 163 183 215 222 209 198 188 198 153 188 228 213 146 194 238 265 159 222 259 266 273 278 279 283 280 275 260 265 282 286 286 280 272 265 259 241 238 231 227 227 224 219 211 206 192 194 194 188 189 185 187 180 175 173 182 168 158 159 160 160 162 167 168 164 155 143 135 130 119 110 102 97 98 94 85 81 77 62
112 249 199 145 270 301 320 5 310 199 274 285 242 231 220 162 199 206 226 210 198 231 244 264 267 259 267 274 275 275 284 300 288 285 281 282 273 276 278 270 267 268 262 251 243 234 231 231 227 221 210 204 200 198 192 191 191 188 183 184 176 177 178 163 167 161 163 166 165 161 163 163 154 149 140 127 119 116 112 106 105 102 94 88 76 62
146 273 127 124 19 297 319 353 71 149 137 275 263 250 215 204 221 227 250 250 234 269 267 263 276 282 273 261 266 279 293 293 292 280 272 270 277 271 268 269 268 265 263 258 252 241 233 232 227 216 209 210 204 201 195 193 188 181 185 182 177 178 173 170 166 168 165 167 162 160 160 158 160 150 137 131 120 118 114 116 114 111 106 96 90 53
56 247 45 76 346 299 330 26 314 31 200 233 268 260 228 201 229 217 210 216 178 231 246 271 273 261 265 272 293 269 281 293 278 280 282 281 268 265 265 269 268 266 264 262 259 252 240 230 221 217 216 211 207 200 195 190 184 179 189 181 180 173 163 172 170 167 167 161 159 161 165 164 157 145 139 129 127 125 125 120 116 111 109 92 37 8
174 131 151 137 217 259 269 62 317 319 324 297 265 241 226 212 214 272 263 183 211 212 241 241 243 243 258 309 323 297 291 283 285 278 288 289 267 251 263 266 267 266 265 264 262 254 241 230 224 221 222 214 208 203 203 187 174 189 185 178 177 154 168 175 171 164 162 163 163 167 166 164 157 147 141 138 133 131 126 123 115 100 75 38 352 359
103 117 145 169 193 252 292 315 318 20 318 250 233 192 151 187 203 220 240 219 225 165 217 221 249 277 292 281 274 277 291 287 291 294 256 260 291 292 275 263 266 270 274 271 262 260 254 240 232 224 219 214 209 206 192 187 189 184 173 167 158 166 170 166 169 166 165 164 169 168 168 163 154 147 143 138 133 130 127 122 125 150 198 21 14 22
148 116 141 156 118 274 324 350 353 274 243 245 275 202 198 220 179 205 239 250 233 217 242 266 266 264 260 263 267 271 280 292 301 289 293 278 242 256 272 284 282 275 274 274 273 262 253 245 240 229 217 213 201 182 170 187 182 162 159 162 165 168 162 168 164 170 168 170 170 167 166 160 151 142 142 141 137 130 128 129 124 102 77 89 357 339
156 140 163 41 146 40 58 79 124 239 241 275 272 228 169 110 142 51 297 261 235 215 217 235 251 254 261 271 275 274 311 295 302 285 264 273 232 233 251 262 271 276 277 272 268 269 257 246 235 224 224 194 165 178 181 184 168 163 169 161 163 161 166 165 170 173 171 172 172 170 166 154 146 142 143 144 138 133 135 139 143 128 73 72 300 266
147 96 118 205 165 208 199 163 239 318 319 300 350 52 170 195 179 163 242 290 224 202 199 224 243 254 265 266 268 307 315 322 307 298 276 244 252 225 224 249 258 274 275 281 269 271 265 254 239 231 195 174 182 174 184 169 164 162 153 161 165 164 167 169 176 179 177 175 171 165 159 153 146 148 150 149 142 142 149 139 103 342 150 58 287 293
90 148 227 155 265 124 184 317 341 4 288 283 248 289 200 179 145 177 102 288 271 228 201 204 232 248 254 269 288 298 344 4 329 308 276 276 240 247 270 260 275 270 275 280 290 275 271 258 238 201 176 178 181 180 162 158 162 158 161 168 167 170 175 179 186 178 175 173 165 157 154 154 151 151 153 150 153 161 168 165 181 211 188 144 313 307
37 85 128 144 186 65 89 156 223 187 250 206 208 90 297 187 132 175 28 299 285 255 190 185 222 237 244 249 281 4 32 349 296 278 290 264 272 235 268 276 259 270 276 275 275 285 278 255 203 181 167 167 181 178 163 161 162 163 173 175 176 178 178 187 182 175 173 164 154 153 155 155 152 151 151 155 164 161 163 176 176 188 161 190 209 255
54 350 54 82 173 190 131 156 245 206 245 255 219 246 215 157 143 62 3 280 265 240 202 178 213 232 242 229 185 159 229 300 292 300 301 249 248 261 239 279 294 294 291 285 278 255 257 197 116 155 180 189 191 164 163 163 169 177 178 179 175 179 186 188 176 157 145 144 152 154 154 153 149 149 151 155 155 158 169 166 140 164 162 218 212 251
137 186 137 209 177 189 183 263 322 286 263 230 191 182 154 162 90 21 242 248 252 243 198 191 222 231 195 167 172 227 229 220 259 281 317 302 311 293 249 237 250 259 272 285 282 297 213 210 201 199 201 198 169 164 167 169 171 183 181 171 175 191 183 156 136 146 150 149 150 152 151 150 147 148 151 151 152 153 146 150 153 156 173 211 241 246
336 102 329 71 165 190 193 196 239 266 258 208 251 147 175 121 245 211 233 231 198 268 210 199 231 237 188 204 198 219 253 269 289 299 296 299 290 282 287 276 275 272 251 253 273 259 241 232 237 233 216 185 168 168 170 172 179 180 171 172 188 175 134 139 147 148 149 150 149 146 145 143 137 136 142 136 119 123 131 198 163 179 194 229 233 270
185 148 201 174 185 67 72 84 342 292 280 111 129 76 241 147 230 211 262 289 201 246 184 222 214 253 171 247 236 245 273 289 290 289 290 293 293 292 296 297 285 279 280 275 268 243 219 227 227 224 200 166 169 171 175 174 177 172 165 180 174 144 145 147 148 147 144 141 140 143 143 141 137 132 128 130 137 131 148 180 171 213 201 207 244 269
197 139 217 246 186 152 164 174 205 214 192 179 148 168 209 214 190 184 124 299 261 191 228 244 256 219 209 227 266 275 265 276 293 289 295 291 288 286 282 274 273 274 271 259 250 252 218 236 236 216 170 160 169 173 175 177 173 166 170 179 149 143 141 142 142 138 136 138 138 135 135 133 124 119 118 127 133 131 142 176 194 216 202 198 239 276
203 192 173 174 209 160 194 213 231 227 189 220 227 216 207 237 290 194 172 236 285 283 168 212 274 265 191 225 248 261 290 278 270 280 287 287 294 293 292 290 278 271 265 262 256 230 211 222 212 176 163 173 173 177 179 183 171 165 175 166 144 147 144 141 138 135 136 137 138 133 130 119 122 125 125 141 132 131 144 188 193 280 267 231 294 287
297 211 179 93 242 273 282 241 244 305 235 255 253 241 248 271 271 251 256 282 253 251 226 253 274 281 269 198 245 276 253 272 287 292 289 285 284 285 285 285 278 260 261 259 253 212 211 194 169 170 179 185 184 180 182 180 168 170 168 141 145 140 139 136 134 133 135 135 135 137 133 119 114 120 129 137 148 152 177 174 203 235 287 311 288 282
242 159 150 229 271 83 260 287 197 235 249 250 252 262 258 245 250 247 255 241 262 272 278 251 248 269 271 248 234 257 275 277 282 281 282 286 285 283 285 280 279 264 249 246 230 183 189 179 182 190 185 189 189 178 171 158 151 141 130 144 137 136 135 134 132 131 133 138 134 133 130 126 132 135 138 149 157 168 178 179 200 233 278 267 264 278
309 182 162 229 210 192 245 254 226 268 256 246 229 265 270 258 246 239 228 245 250 266 261 272 285 277 264 268 253 252 265 275 276 278 283 283 282 287 286 280 279 279 247 233 214 190 194 195 199 194 188 189 179 163 147 135 129 129 132 131 135 134 132 132 140 142 145 141 137 135 134 130 140 141 153 174 158 163 221 227 186 212 247 260 279 285
177 121 225 176 198 262 301 288 273 277 277 273 270 251 243 255 269 270 248 241 249 257 273 279 240 249 258 256 268 263 273 275 268 268 272 278 285 285 280 279 270 256 253 220 211 190 203 200 202 197 184 172 145 140 128 121 122 134 138 140 141 141 134 135 133 128 129 133 125 130 132 136 142 146 147 166 178 202 198 203 250 243 261 248 200 218
101 215 210 94 271 259 231 255 89 325 295 293 270 254 245 249 231 258 283 276 250 256 266 271 280 256 233 248 256 252 255 270 274 273 270 268 271 277 284 288 279 263 254 226 196 198 209 206 193 174 167 143 138 136 134 130 133 137 140 141 144 139 133 132 127 126 133 133 132 136 133 133 137 139 129 130 97 350 307 266 240 236 242 268 256 258
184 208 150 203 196 247 243 250 236 245 272 257 270 285 281 226 187 228 266 278 289 233 234 245 272 291 285 267 221 227 247 255 269 276 279 276 271 271 279 289 289 275 246 190 175 196 197 188 165 156 155 153 147 143 140 135 136 134 136 140 140 135 132 133 130 130 135 137 143 147 142 135 129 131 115 117 95 12 316 314 292 248 249 261 267 267